| time (UTC) | temp F | wind direction | speed knots | gust knots | rain 1hr in | rain 24hr in | rain mn in | humidity % | barometer mb |
| 20260510142142 | 49 | 245 | 2.6 | 7.0 | 0.00 | 0.00 | 0.00 | 48 | 1014.8 |
| 20260510141200 | 49 | 251 | 1.7 | 5.2 | 0.00 | 0.00 | 0.00 | 50 | 1014.8 |
| 20260510140221 | 49 | 247 | 1.7 | 6.1 | 0.00 | 0.00 | 0.00 | 49 | 1014.8 |
| 20260510135221 | 48 | 214 | 1.7 | 6.1 | 0.00 | 0.00 | 0.00 | 50 | 1014.7 |
| 20260510134234 | 48 | 231 | 1.7 | 7.0 | 0.00 | 0.00 | 0.00 | 52 | 1014.6 |
| 20260510133227 | 47 | 221 | 1.7 | 7.0 | 0.00 | 0.00 | 0.00 | 54 | 1014.3 |
| 20260510125942 | 46 | 298 | 1.7 | 7.0 | 0.00 | 0.00 | 0.00 | 60 | 1014.2 |
| 20260510125006 | 46 | 4 | 2.6 | 6.1 | 0.00 | 0.00 | 0.00 | 61 | 1014.1 |
| 20260510123954 | 46 | 268 | 1.7 | 4.3 | 0.00 | 0.00 | 0.00 | 63 | 1014.0 |
| 20260510122931 | 45 | 262 | 1.7 | 6.1 | 0.00 | 0.00 | 0.00 | 65 | 1013.8 |
| 20260510121950 | 45 | 258 | 1.7 | 6.1 | 0.00 | 0.00 | 0.00 | 65 | 1013.7 |
| 20260510121007 | 45 | 251 | 0.9 | 5.2 | 0.00 | 0.00 | 0.00 | 65 | 1013.6 |
| 20260510115940 | 44 | 303 | 1.7 | 5.2 | 0.00 | 0.00 | 0.00 | 65 | 1013.5 |
| 20260510114943 | 44 | 280 | 1.7 | 5.2 | 0.00 | 0.00 | 0.00 | 67 | 1013.4 |
| 20260510114008 | 44 | 342 | 2.6 | 5.2 | 0.00 | 0.00 | 0.00 | 67 | 1013.3 |
| 20260510113003 | 43 | 238 | 1.7 | 4.3 | 0.00 | 0.00 | 0.00 | 68 | 1013.2 |
| 20260510112024 | 43 | 252 | 1.7 | 4.3 | 0.00 | 0.00 | 0.00 | 69 | 1013.0 |
| 20260510111016 | 42 | 252 | 0.9 | 4.3 | 0.00 | 0.00 | 0.00 | 69 | 1012.8 |
| 20260510110021 | 42 | 253 | 0.9 | 2.6 | 0.00 | 0.00 | 0.00 | 69 | 1012.6 |
| 20260510105014 | 42 | 260 | 0.9 | 2.6 | 0.00 | 0.00 | 0.00 | 70 | 1012.4 |
| 20260510104012 | 42 | 272 | 0.0 | 2.6 | 0.00 | 0.00 | 0.00 | 70 | 1012.2 |
| 20260510103002 | 42 | 277 | 0.0 | 2.6 | 0.00 | 0.00 | 0.00 | 71 | 1011.8 |
| 20260510101946 | 41 | 283 | 0.0 | 1.7 | 0.00 | 0.00 | 0.00 | 71 | 1011.6 |
| 20260510100940 | 42 | 245 | 0.0 | 2.6 | 0.00 | 0.00 | 0.00 | 70 | 1011.5 |
| 20260510094843 | 42 | 309 | 0.0 | 4.3 | 0.00 | 0.00 | 0.00 | 70 | 1010.9 |
| 20260510091539 | 42 | 245 | 0.0 | 3.5 | 0.00 | 0.00 | 0.00 | 70 | 1010.5 |
| 20260510090517 | 42 | 248 | 0.9 | 4.3 | 0.00 | 0.00 | 0.00 | 70 | 1010.3 |
| 20260510085449 | 42 | 250 | 0.0 | 4.3 | 0.00 | 0.00 | 0.00 | 69 | 1010.3 |
| 20260510084425 | 42 | 275 | 0.0 | 3.5 | 0.00 | 0.00 | 0.00 | 69 | 1010.0 |
| 20260510083408 | 43 | 260 | 0.9 | 2.6 | 0.00 | 0.00 | 0.00 | 68 | 1009.9 |
| 20260510082337 | 43 | 267 | 0.9 | 2.6 | 0.00 | 0.00 | 0.00 | 67 | 1010.0 |
| 20260510081322 | 43 | 249 | 0.9 | 4.3 | 0.00 | 0.00 | 0.00 | 67 | 1010.0 |
| 20260510080319 | 44 | 250 | 0.0 | 4.3 | 0.00 | 0.00 | 0.00 | 67 | 1009.8 |
| 20260510075323 | 44 | 256 | 0.0 | 4.3 | 0.00 | 0.00 | 0.00 | 67 | 1009.8 |
| 20260510074312 | 44 | 267 | 0.9 | 4.3 | 0.00 | 0.00 | 0.00 | 66 | 1009.7 |
| 20260510073330 | 45 | 234 | 0.9 | 2.6 | 0.00 | 0.00 | 0.00 | 65 | 1009.6 |
| 20260510071148 | 46 | 289 | 0.9 | 5.2 | 0.00 | 0.00 | 0.00 | 62 | 1009.5 |
| 20260510070152 | 47 | 250 | 1.7 | 5.2 | 0.00 | 0.00 | 0.00 | 61 | 1009.3 |
| 20260510065145 | 48 | 264 | 1.7 | 5.2 | 0.00 | 0.00 | 0.00 | 59 | 1009.2 |
| 20260510064128 | 48 | 257 | 0.9 | 3.5 | 0.00 | 0.00 | 0.00 | 59 | 1009.1 |
| 20260510063131 | 48 | 248 | 0.9 | 3.5 | 0.00 | 0.00 | 0.00 | 59 | 1009.0 |
| 20260510060939 | 49 | 249 | 0.0 | 2.6 | 0.00 | 0.00 | 0.00 | 62 | 1008.8 |
| 20260510055936 | 49 | 259 | 0.0 | 2.6 | 0.00 | 0.00 | 0.00 | 62 | 1008.8 |
| 20260510054924 | 49 | 269 | 0.0 | 2.6 | 0.00 | 0.00 | 0.00 | 63 | 1008.4 |
| 20260510053855 | 50 | 255 | 0.0 | 2.6 | 0.00 | 0.00 | 0.00 | 63 | 1008.3 |
| 20260510052908 | 50 | 255 | 0.0 | 2.6 | 0.00 | 0.00 | 0.00 | 63 | 1008.2 |
| 20260510051841 | 50 | 250 | 0.0 | 1.7 | 0.00 | 0.00 | 0.00 | 63 | 1008.2 |
| 20260510050842 | 50 | 272 | 0.0 | 0.0 | 0.00 | 0.00 | 0.00 | 62 | 1008.0 |
| 20260510045809 | 50 | 252 | 0.0 | 2.6 | 0.00 | 0.00 | 0.00 | 63 | 1008.3 |
| 20260510044751 | 51 | 261 | 0.0 | 0.0 | 0.00 | 0.00 | 0.00 | 64 | 1007.9 |
| 20260510043807 | 51 | 244 | 0.0 | 1.7 | 0.00 | 0.00 | 0.00 | 64 | 1007.7 |
| 20260510042815 | 51 | 255 | 0.0 | 1.7 | 0.00 | 0.00 | 0.00 | 63 | 1007.7 |
| 20260510041755 | 51 | 252 | 0.0 | 2.6 | 0.00 | 0.00 | 0.00 | 63 | 1007.4 |
| 20260510040733 | 51 | 237 | 0.0 | 3.5 | 0.00 | 0.00 | 0.00 | 63 | 1007.4 |
| 20260510035732 | 51 | 256 | 0.0 | 3.5 | 0.00 | 0.00 | 0.00 | 66 | 1007.3 |
| 20260510034740 | 51 | 276 | 0.0 | 0.9 | 0.00 | 0.00 | 0.00 | 68 | 1007.2 |
| 20260510033715 | 51 | 259 | 0.0 | 1.7 | 0.00 | 0.00 | 0.00 | 67 | 1007.0 |
| 20260510032652 | 51 | 276 | 0.0 | 2.6 | 0.00 | 0.00 | 0.00 | 67 | 1006.9 |
| 20260510031649 | 52 | 247 | 0.0 | 1.7 | 0.00 | 0.00 | 0.00 | 65 | 1006.6 |
| 20260510030632 | 52 | 215 | 0.0 | 2.6 | 0.00 | 0.00 | 0.00 | 67 | 1006.5 |
| 20260510025605 | 53 | 264 | 0.0 | 2.6 | 0.00 | 0.00 | 0.00 | 74 | 1006.7 |
| 20260510024625 | 53 | 250 | 0.0 | 1.7 | 0.00 | 0.00 | 0.00 | 75 | 1006.6 |
| 20260510023609 | 54 | 312 | 0.0 | 4.3 | 0.00 | 0.00 | 0.00 | 78 | 1006.7 |
| 20260510021539 | 54 | 264 | 0.0 | 1.7 | 0.00 | 0.00 | 0.00 | 88 | 1006.2 |
| 20260510020526 | 54 | 254 | 0.0 | 0.0 | 0.00 | 0.00 | 0.00 | 88 | 1006.0 |
| 20260510015452 | 54 | 250 | 0.0 | 0.9 | 0.00 | 0.00 | 0.00 | 88 | 1005.7 |
| 20260510014459 | 53 | 252 | 0.0 | 0.9 | 0.00 | 0.00 | 0.00 | 88 | 1005.5 |
| 20260510013503 | 53 | 239 | 0.0 | 0.0 | 0.00 | 0.00 | 0.00 | 89 | 1005.2 |
| 20260510011402 | 53 | 220 | 0.0 | 0.0 | 0.00 | 0.00 | 0.00 | 88 | 1004.5 |
| 20260510010337 | 54 | 221 | 0.0 | 0.0 | 0.00 | 0.00 | 0.00 | 88 | 1004.3 |
| 20260510004158 | 54 | 311 | 0.0 | 0.0 | 0.00 | 0.00 | 0.00 | 87 | 1004.0 |
| 20260510002012 | 55 | 219 | 0.0 | 2.6 | 0.00 | 0.00 | 0.00 | 86 | 1003.7 |
| 20260510001001 | 55 | 279 | 0.0 | 1.7 | 0.00 | 0.00 | 0.00 | 84 | 1003.8 |
| 20260509235933 | 55 | 245 | 0.0 | 0.9 | 0.00 | 0.00 | 0.00 | 83 | 1003.5 |
| 20260509234938 | 55 | 222 | 0.0 | 0.9 | 0.00 | 0.00 | 0.00 | 85 | 1003.4 |
| 20260509233925 | 56 | 210 | 0.0 | 3.5 | 0.00 | 0.00 | 0.00 | 82 | 1003.5 |
| 20260509231801 | 56 | 225 | 1.7 | 7.8 | 0.00 | 0.00 | 0.00 | 81 | 1002.6 |
| 20260509224516 | 56 | 196 | 1.7 | 6.1 | 0.00 | 0.00 | 0.00 | 79 | 1002.6 |
| 20260509223512 | 55 | 217 | 0.0 | 5.2 | 0.00 | 0.00 | 0.00 | 82 | 1002.6 |
| 20260509222534 | 55 | 226 | 0.9 | 5.2 | 0.00 | 0.00 | 0.00 | 84 | 1002.6 |
| 20260509221527 | 55 | 215 | 1.7 | 10.4 | 0.00 | 0.00 | 0.00 | 84 | 1002.5 |
| 20260509220500 | 55 | 157 | 2.6 | 10.4 | 0.00 | 0.00 | 0.00 | 83 | 1002.5 |
| 20260509214316 | 57 | 213 | 0.9 | 5.2 | 0.00 | 0.00 | 0.00 | 83 | 1002.9 |
| 20260509213312 | 58 | 241 | 0.0 | 5.2 | 0.00 | 0.00 | 0.00 | 80 | 1002.7 |
| 20260509212305 | 58 | 167 | 0.9 | 6.1 | 0.00 | 0.00 | 0.00 | 77 | 1002.8 |
| 20260509211323 | 59 | 229 | 1.7 | 6.1 | 0.00 | 0.00 | 0.00 | 75 | 1002.9 |
| 20260509205158 | 60 | 168 | 0.0 | 6.1 | 0.00 | 0.00 | 0.00 | 73 | 1002.2 |
| 20260509203045 | 60 | 201 | 0.0 | 6.1 | 0.00 | 0.00 | 0.00 | 71 | 1002.4 |
| 20260509202104 | 60 | 231 | 0.0 | 5.2 | 0.00 | 0.00 | 0.00 | 71 | 1002.6 |
| 20260509201042 | 60 | 74 | 0.0 | 5.2 | 0.00 | 0.00 | 0.00 | 72 | 1002.5 |
| 20260509200028 | 59 | 177 | 0.0 | 2.6 | 0.00 | 0.00 | 0.00 | 72 | 1003.0 |
| 20260509195007 | 59 | 183 | 0.0 | 4.3 | 0.00 | 0.00 | 0.00 | 73 | 1003.0 |
| 20260509193937 | 59 | 84 | 0.0 | 4.3 | 0.00 | 0.00 | 0.00 | 72 | 1002.9 |
| 20260509192943 | 59 | 181 | 0.0 | 4.3 | 0.00 | 0.00 | 0.00 | 71 | 1003.3 |
| 20260509191954 | 60 | 199 | 0.9 | 4.3 | 0.00 | 0.00 | 0.00 | 70 | 1003.4 |
| 20260509190932 | 60 | 115 | 0.0 | 1.7 | 0.00 | 0.00 | 0.00 | 71 | 1003.4 |
| 20260509184804 | 61 | 168 | 0.0 | 0.0 | 0.00 | 0.00 | 0.00 | 72 | 1003.5 |
| 20260509183738 | 61 | 219 | 0.9 | 8.7 | 0.00 | 0.00 | 0.00 | 70 | 1003.6 |
| 20260509182725 | 62 | 65 | 0.0 | 3.5 | 0.00 | 0.00 | 0.00 | 70 | 1003.6 |
| 20260509181723 | 62 | 222 | 0.0 | 7.0 | 0.00 | 0.00 | 0.00 | 69 | 1003.7 |
| 20260509175620 | 62 | 160 | 0.9 | 5.2 | 0.00 | 0.00 | 0.00 | 67 | 1003.8 |
| 20260509174626 | 62 | 198 | 0.0 | 4.3 | 0.00 | 0.00 | 0.00 | 68 | 1004.1 |
| 20260509173554 | 62 | 65 | 0.9 | 4.3 | 0.00 | 0.00 | 0.00 | 69 | 1004.2 |
| 20260509172610 | 62 | 181 | 0.0 | 3.5 | 0.00 | 0.00 | 0.00 | 69 | 1004.4 |
| 20260509171627 | 62 | 186 | 0.0 | 2.6 | 0.00 | 0.00 | 0.00 | 71 | 1004.8 |
| 20260509165433 | 61 | 217 | 0.0 | 5.2 | 0.00 | 0.00 | 0.00 | 71 | 1005.1 |
| 20260509164410 | 60 | 201 | 0.0 | 1.7 | 0.00 | 0.00 | 0.00 | 74 | 1005.0 |
| 20260509163344 | 59 | 238 | 0.9 | 5.2 | 0.00 | 0.00 | 0.00 | 74 | 1005.1 |
| 20260509161211 | 58 | 205 | 0.9 | 7.0 | 0.00 | 0.00 | 0.00 | 79 | 1005.4 |
| 20260509160147 | 57 | 243 | 0.9 | 7.0 | 0.00 | 0.00 | 0.00 | 81 | 1005.6 |
| 20260509150606 | 54 | 262 | 0.0 | 0.0 | 0.00 | 0.00 | 0.00 | 87 | 1006.2 |
| 20260509145608 | 53 | 75 | 0.0 | 0.0 | 0.00 | 0.00 | 0.00 | 86 | 1006.1 |
| 20260509144616 | 53 | 165 | 0.0 | 0.9 | 0.00 | 0.00 | 0.00 | 86 | 1006.2 |
| 20260509143604 | 54 | 58 | 0.0 | 0.9 | 0.00 | 0.00 | 0.00 | 85 | 1006.4 |